Regional Weather Roundup
Issued by NWS Mobile, AL

Home | Current Version | Previous Version | Text Only | Print | Product List | Glossary On
Versions: 1 2 3 4 5 6 7 8 9 10 11 12 13 14 15 16 17 18 19 20 21 22 23 24 25 26 27 28 29 30 31 32 33 34 35 36 37 38 39 40 41 42 43 44 45 46 47 48 49 50
000
ASUS44 KMOB 211510
RWRMOB
REGIONAL WEATHER ROUNDUP
NATIONAL WEATHER SERVICE MOBILE AL
900 AM CST SUN DEC 21 2014

NOTE: "FAIR" INDICATES FEW OR NO CLOUDS BELOW 12,000 FEET WITH NO
      SIGNIFICANT WEATHER AND/OR OBSTRUCTIONS TO VISIBILITY.

  * THESE STATIONS ARE PART OF THE UNIVERSITY OF SOUTH ALABAMA
    MESONET AND ARE NOT UNDER NWS OR FAA QUALITY CONTROL.

ALZ061>064-211600-
COASTAL ALABAMA

CITY           SKY/WX    TMP DP  RH WIND       PRES   REMARKS
MOBILE REG APT CLOUDY    51  49  92 NE7       30.11S FOG
BROOKLEY FIELD CLOUDY    54  50  86 NE7       30.12S
USA CAMPUS*    NOT AVBL
DOG RIVER*     NOT AVBL


CITY           SKY/WX    TMP DP  RH WIND       PRES   REMARKS
MOUNT VERNON*    N/A     50  48  93 VRB3      30.12F
SARALAND*      NOT AVBL
BAY MINETTE*   NOT AVBL
LOXLEY*          N/A     54  50  87 NE7       30.11R
ROBERTSDALE*     N/A     54  52  94 N2        30.11R
FAIRHOPE*        N/A     54  52  94 E7        30.10S
ELBERTA*         N/A     54  52  94 NE5       30.10R
FOLEY*           N/A     54  52  94 N5        30.09S
GRAND BAY*       N/A     54  50  87 NE7       30.10R
DAUPHIN ISLND* NOT AVBL
BON SCOUR NWR* NOT AVBL
GULF SHORES    CLOUDY    53  51  94 E7        30.11R

$$

ALZ051>060-211600-
INTERIOR SOUTHWEST AND SOUTH CENTRAL ALABAMA

CITY           SKY/WX    TMP DP  RH WIND       PRES   REMARKS
GREENVILLE     CLOUDY    53  50  89 E6        30.13R FOG
EVERGREEN      CLOUDY    56  51  84 NE8       30.13R
CASTLEBERRY*   NOT AVBL
ATMORE*          N/A     54  52  94 NE9       30.14R
DIXIE*           N/A     54  52  94 CALM      30.10R
ANDALUSIA/OPP  CLOUDY    58  50  75 E8        30.12R
ANDALUSIA*       N/A     54  52  94 E7        30.12R
FLORALA APT    CLOUDY    55  51  86 NE9       30.13S
FLORALA*         N/A     54  52  94 N5        30.09S

$$

FLZ001>006-211600-
WESTERN FLORIDA PANHANDLE

CITY           SKY/WX    TMP DP  RH WIND       PRES   REMARKS
PENSACOLA      CLOUDY    52  51  97 NE5       30.11R
NAS PENSACOLA  NOT AVBL
MILTON         NOT AVBL
WHTNG S FIELD  CLOUDY    57  51  80 E9        30.12R


CITY           SKY/WX    TMP DP  RH WIND       PRES   REMARKS
WALNUT HILL*   NOT AVBL
JAY*             N/A     54  50  87 NE3       30.12S
DUKE FIELD     CLOUDY    53  52  95 NE6       30.11R FOG
CRESTVIEW      CLOUDY    54  52  93 NE6       30.12F FOG
VALPARAISO     CLOUDY    54  53  94 NE6       30.11R FOG
DESTIN         CLOUDY    56  53  90 NE7       30.11R

$$

MSZ076-079-211600-
INTERIOR SOUTHEAST MISSISSIPPI

CITY           SKY/WX    TMP DP  RH WIND       PRES   REMARKS
LEAKESVILLE*   NOT AVBL
AGRICOLA*      NOT AVBL

$$

MARINE OBSERVATIONS

STATION/POSITION TIME  TEMP    WIND        PRES    WAVE
                       AIR SEA DIR/SP/G            HT/PER
                 (UTC) (F)     (DEG/KT/KT) (MB)    (FT/S)
PASCAGOULA       1500   53      30/  3/  6 1019.5R
PETIT BOIS ISLND 1500   54      50/  9/ 11 1019.9R
GRAND BAY        1400   51      10/  4     1020.0S
KATRINA CUT      1419   53      60/ 14     1020.0
CEDAR POINT      1400   53      50/ 11     1019.6R
E DAUPHIN ISLAND 1400   54      50/ 12/ 13 1019.0S
MIDDLE BAY LIGHT 1400   53      40/ 12     1019.0R
USCG MOBILE BAY  1500   52 60   30/  8/ 10 1018.2F
STATE DOCKS      1500   53 57              1018.9F
MEAHER PARK      1400   53      10/  3     1020.0S
WEEKS BAY        1400   53                   N/A
FORT MORGAN      1500   54      90/  9/ 13 1019.2R
12 S ORANGE BCH  1500   59 69   50/ 12/ 16 1018.5R   3/ 5
PENSACOLA BAY    1500   56 58   70/  4/  6 1019.9R
64 S DAUPHIN ISL 1500   64 74   40/ 12/ 16 1018.2R   4/ 6
67 S FORT MORGAN 1300   65      40/ 14     1018.3R

$$

SELECTED LOCATIONS ACROSS THE REGION

CITY           SKY/WX    TMP DP  RH WIND       PRES   REMARKS
NEW ORLEANS    CLOUDY    54  48  80 E7        30.11S
GULFPORT       CLOUDY    52  48  86 NE5       30.11F
PASCAGOULA AP  CLOUDY    53  49  86 NE6       30.11S
PASCAGOULA*      N/A     54  48  82 NE5       30.12R
HATTIESBURG    CLOUDY    45  44  97 NE3       30.16R FOG
LAUREL         CLOUDY    45  41  87 NE5       30.14S VSB 1/2
MERIDIAN       CLOUDY    43  40  89 NE6       30.16S
JACKSON        SUNNY     46  38  73 CALM      30.16R
MONTGOMERY     CLOUDY    53  48  83 NE9       30.16S
TROY           CLOUDY    55  50  83 E7        30.15S
KINSTON*       NOT AVBL
GENEVA*          N/A     55  50  82 E7        30.15R
ASHFORD*         N/A     54  52  94 E7        30.12R
DOTHAN         CLOUDY    54  51  90 NE8       30.16R
PANAMA CITY    CLOUDY    54  52  93 MISG      30.09S FOG

$$




USA.gov is the U.S. government's official web portal to all federal, state and local government web resources and services.